Regional Weather Roundup
Issued by NWS

Home | Current Version | Previous Version | Graphics & Text | Print | Product List | Glossary On
Versions: 1 2 3 4 5 6 7 8 9 10 11 12 13 14 15 16 17 18 19 20 21 22 23 24 25 26 27 28 29 30 31 32 33 34 35 36 37 38 39 40 41 42 43 44 45 46 47 48 49 50
000
ASUS43 KLOT 200810
RWRIL

ILLINOIS REGIONAL WEATHER ROUNDUP
NATIONAL WEATHER SERVICE CHICAGO/ROMEOVILLE IL
300 AM CDT WED AUG 20 2014

NOTE: "FAIR" INDICATES FEW OR NO CLOUDS BELOW 12,000 FEET WITH NO
SIGNIFICANT WEATHER AND/OR OBSTRUCTIONS TO VISIBILITY.

* THESE STATIONS ARE NOT UNDER NWS QUALITY CONTROL. THEY ALSO MAY NOT
  REPORT WEATHER SUCH AS PRECIPITATION OR FOG.

ILZ001-002-007-009-015-016-024-200900-
NORTHWEST ILLINOIS

CITY           SKY/WX    TMP DP  RH WIND       PRES   REMARKS
MOLINE         CLEAR     63  60  90 CALM      29.83S
STERLING*      CLEAR     64  61  88 W3        29.84R
SAVANNA*       PTCLDY    64  61  91 SE3       29.83R
$$

ILZ003-004-008-010-011-017-018-200900-
NORTH CENTRAL ILLINOIS

CITY           SKY/WX    TMP DP  RH WIND       PRES   REMARKS
ROCKFORD       PTCLDY    64  61  90 CALM      29.83S
FREEPORT*      PTCLDY    65  62  90 SW6       29.85R
ROCHELLE*      CLEAR     60  59  96 CALM      29.83S
DE KALB*       CLEAR     65  61  88 W6        29.83R
PERU*          CLEAR     66  63  91 W7        29.83S
$$

ILZ005-006-012>014-019>023-200900-
NORTHEAST ILLINOIS

CITY           SKY/WX    TMP DP  RH WIND       PRES   REMARKS
CHICAGO-OHARE  CLEAR     69  61  75 W6        29.79R
CHICAGO-MIDWAY CLEAR     71  66  84 W5        29.79S
AURORA         CLEAR     62  60  93 SW5       29.81S
LANSING*       CLEAR     66  64  94 CALM      29.81S
JOLIET*        CLEAR     66  63  90 CALM      29.82R
WAUKEGAN       MOCLDY    68  63  84 CALM      29.78S
DUPAGE AIRPORT CLEAR     66  62  87 SW6       29.80S
KANKAKEE*      CLEAR     67  65  96 W3        29.83R
WHEELING       CLEAR     69  63  81 W3        29.80S
MORRIS*        CLEAR     65  64  96 W6        29.81S
ROMEOVILLE*    CLEAR     65  64  98 W6        29.81S
NORTHERLY ISL    N/A     72  63  73 W6          N/A
$$

LMZ740>746-200900-
SOUTHERN LAKE MICHIGAN

STATION/POSITION SKY/WX   TEMP    WIND        PRES    VSBY  WAVE
                          AIR SEA DIR/SP/G                  HT/PER
                          (F)     (DEG/KT/KT) (MB)    (MI)  (FT/S)
SOUTHERN BUOY              68 66  280/  8/  8 1008.0R         1
WAUKEGAN HARBOR            70     280/  8/ 10   N/A
HARRISON CRIB              73     260/  7/  8   N/A
BURNHAM HARBOR             72     260/  6/  7   N/A
CALUMET HARBOR             71     220/  4/  5 1007.9R
BURNS HARBOR               73     230/  7/  9   N/A
MICHIGAN CITY              72     220/ 12/ 14   N/A
MICHIGAN CITY 6N           71 70  250/  8/ 10   N/A           1/ 2
ST. JOSEPH                 71 70  250/  8/ 10   N/A           1/ 3
$$

ILZ025>027-034>036-040-047-049-050-058-095>099-200900-
WEST-CENTRAL ILLINOIS

CITY           SKY/WX    TMP DP  RH WIND       PRES   REMARKS
QUINCY         CLEAR     69  67  93 CALM      29.84R
GALESBURG*     CLEAR     62  62  98 CALM      29.85R
MACOMB*        PTCLDY    62  62 100 CALM      29.86R
JACKSONVILLE*  CLEAR     70  69  97 CALM      29.85R FOG
PITTSFIELD*    CLEAR     70  67  92 CALM      29.86R
$$

ILZ028>032-037-038-041>044-048-051>054-059>061-200900-
CENTRAL ILLINOIS

CITY           SKY/WX    TMP DP  RH WIND       PRES   REMARKS
PONTIAC        CLEAR     66  66 100 CALM      29.83S
DECATUR        CLEAR     75  71  87 NW8       29.84S
PEORIA         CLEAR     69  65  86 CALM      29.84S
LACON*         CLEAR     65  64  94 CALM      29.83R
LINCOLN*       FOG       65  64  95 CALM      29.82R VSB 1/2
SPRINGFIELD    CLEAR     68  67  96 N5        29.83F
TAYLORVILLE    PTCLDY    66  64  94 SW5       29.84R FOG
$$

ILZ033-039-045-046-055>057-062-063-200900-
EAST-CENTRAL ILLINOIS

CITY           SKY/WX    TMP DP  RH WIND       PRES   REMARKS
CHAMPAIGN      CLEAR     64  63  96 CALM      29.85R FOG
DANVILLE*      CLEAR     66  65  98 W5        29.82R
RANTOUL*       CLEAR     68  65  89 W3        29.85S
MATTOON        CLEAR     72  69  90 W5        29.84S
PARIS*         CLEAR     66  66 100 CALM      29.86R FOG
$$

ILZ079-100>102-200900-
SOUTHWEST ILLINOIS

CITY           SKY/WX    TMP DP  RH WIND       PRES   REMARKS
ALTON          CLEAR     69  69 100 CALM      29.85R FOG
BELLEVILLE     CLEAR     72  72 100 CALM      29.84R FOG
CAHOKIA*       CLEAR     71  70  96 S3        29.84R
SPARTA*        CLEAR     69  68  98 CALM      29.86R
$$

ILZ064>066-069>071-074>076-080>082-084>086-088>090-092>094-200900-
SOUTH-CENTRAL ILLINOIS

CITY           SKY/WX    TMP DP  RH WIND       PRES   REMARKS
CARBONDALE     CLEAR     68  67  96 CALM      29.85S
CAIRO*           N/A     78  74  89 SW3       29.85S HX  80
MARION         CLEAR     70  68  94 CALM      29.86R
MT. VERNON     CLEAR     68  64  88 CALM      29.87R
CENTRALIA*     CLEAR     67  65  93 CALM      29.86R FOG
SALEM*           N/A     71  70  98 CALM      29.86R FOG
$$

ILZ067-068-072-073-078-083-087-091-200900-
SOUTHEAST ILLINOIS

CITY           SKY/WX    TMP DP  RH WIND       PRES   REMARKS
LAWRENCEVILLE  CLEAR     71  70  96 CALM      29.86S FOG
FLORA*         CLEAR     69  68  98 CALM      29.86S FOG
FAIRFIELD*     CLEAR     70  70 100 MISG      29.85S FOG
HARRISBURG*    CLEAR     67  67 100 CALM      29.87R
ROBINSON*      FOG       71  70  98 CALM      29.86S VSB 1/4
CARMI*         CLEAR     70  70 100 CALM      29.86R
$$

ABBREVIATIONS USED IN REMARKS
   TC - TEMPERATURE IN CELSIUS
  WCI - WIND CHILL INDEX
   HX - HEAT INDEX
  VSB - VISIBILITY
$$



USA.gov is the U.S. government's official web portal to all federal, state and local government web resources and services.